This is the latest recevied weather packets stored in our database for station/object EA1AHA-13. If no packets are shown the sender has not sent any weather packets the latest 10 day(s).
| Time | Temp. | Humidity | Pressure | Rain* | Wind** | Luminosity | Snow |
|---|---|---|---|---|---|---|---|
| 1777815389 | 13.89° C | 94% | 1011 hPa | 1.78 mm | - | - | - |
| 1777814765 | 13.89° C | 94% | 1011.3 hPa | 0.76 mm | - | - | - |
| 1777814188 | 13.89° C | 93% | 1011.2 hPa | 0.51 mm | - | - | - |
| 1777813566 | 13.89° C | 92% | 1011.2 hPa | 0.25 mm | - | - | - |
| 1777812988 | 13.89° C | 91% | 1011.3 hPa | 0.25 mm | - | - | - |
| 1777812365 | 13.89° C | 89% | 1011.5 hPa | 0 mm | - | - | - |
| 1777811788 | 13.89° C | 89% | 1011.4 hPa | 0 mm | - | - | - |
| 1777811165 | 14.44° C | 90% | 1011.3 hPa | 0 mm | - | - | - |
| 1777810589 | 13.89° C | 91% | 1011.6 hPa | 0 mm | - | - | - |
| 1777809965 | 13.89° C | 90% | 1011.3 hPa | 0 mm | - | - | - |
| 1777809389 | 13.89° C | 89% | 1011.5 hPa | 0 mm | - | - | - |
| 1777808765 | 14.44° C | 89% | 1011.5 hPa | 0 mm | - | - | - |
| 1777808188 | 14.44° C | 88% | 1011.8 hPa | 0 mm | - | - | - |
| 1777807564 | 14.44° C | 88% | 1011.9 hPa | 0 mm | - | - | - |
| 1777806988 | 15° C | 89% | 1011.7 hPa | 0 mm | - | - | - |
| 1777806365 | 14.44° C | 88% | 1011.8 hPa | 0 mm | - | - | - |
| 1777805789 | 13.89° C | 90% | 1012 hPa | 0 mm | - | - | - |
| 1777805165 | 13.33° C | 92% | 1011.8 hPa | 0 mm | - | - | - |
| 1777804401 | 13.33° C | 91% | 1012.2 hPa | 0 mm | - | - | - |
| 1777803965 | 13.89° C | 91% | 1011.8 hPa | 0 mm | - | - | - |
| 1777803389 | 13.89° C | 90% | 1011.9 hPa | 0 mm | - | - | - |
| 1777802765 | 14.44° C | 90% | 1011.7 hPa | 0 mm | - | - | - |
| 1777802190 | 14.44° C | 88% | 1011.6 hPa | 0 mm | - | - | - |
| 1777801565 | 15° C | 85% | 1011.7 hPa | 0 mm | - | - | - |
| 1777800989 | 15° C | 84% | 1011.7 hPa | 0 mm | - | - | - |
* Rain latest hour (hover to see other rain measurements)
** Current wind speed in m/s (hover to see current wind gust speed)